TimeEDT,TemperatureF,Dew PointF,Humidity,Sea Level PressureIn,VisibilityMPH,Wind Direction,Wind SpeedMPH,Gust SpeedMPH,PrecipitationIn,Events,Conditions,WindDirDegrees,DateUTC
12:01 AM,73.0,66.0,79,30.14,10.0,Variable,4.6,-,N/A,,Overcast,0,2013-06-10 04:01:00
12:21 AM,73.0,66.9,81,30.14,6.0,SSE,6.9,-,N/A,,Haze,160,2013-06-10 04:21:00
12:26 AM,73.0,66.9,81,30.14,2.0,SSE,5.8,-,N/A,,Haze,160,2013-06-10 04:26:00
12:31 AM,73.0,66.9,81,30.14,1.0,South,6.9,-,N/A,,Haze,170,2013-06-10 04:31:00
12:38 AM,73.0,66.9,81,30.14,0.5,South,5.8,-,N/A,,Haze,180,2013-06-10 04:38:00
12:54 AM,73.0,66.9,81,30.13,0.5,South,6.9,-,N/A,,Haze,170,2013-06-10 04:54:00
1:03 AM,73.0,66.9,81,30.13,1.0,South,8.1,-,N/A,,Haze,180,2013-06-10 05:03:00
1:28 AM,73.0,68.0,84,30.13,1.8,South,8.1,-,N/A,,Haze,190,2013-06-10 05:28:00
1:54 AM,73.0,68.0,84,30.11,1.0,South,4.6,-,N/A,,Haze,170,2013-06-10 05:54:00
2:19 AM,73.0,66.9,81,30.12,1.8,South,5.8,-,N/A,,Haze,190,2013-06-10 06:19:00
2:31 AM,73.0,66.9,81,30.12,2.5,South,6.9,-,N/A,,Haze,180,2013-06-10 06:31:00
2:40 AM,73.0,66.9,81,30.12,4.0,North,-9999.0,-,N/A,,Haze,0,2013-06-10 06:40:00
2:54 AM,73.0,66.9,81,30.10,5.0,North,-9999.0,-,N/A,,Haze,0,2013-06-10 06:54:00
3:23 AM,73.0,66.9,81,30.11,2.0,SSW,8.1,-,N/A,,Haze,200,2013-06-10 07:23:00
3:30 AM,72.0,66.9,84,30.11,1.0,SSW,9.2,-,N/A,,Haze,200,2013-06-10 07:30:00
3:50 AM,71.6,66.2,83,30.11,2.0,SSW,6.9,-,N/A,,Haze,210,2013-06-10 07:50:00
3:51 AM,71.6,66.2,83,30.11,2.5,SSW,5.8,-,N/A,,Haze,200,2013-06-10 07:51:00
3:54 AM,72.0,66.9,84,30.10,4.0,SSW,6.9,-,N/A,,Haze,200,2013-06-10 07:54:00
4:45 AM,72.0,66.0,81,30.10,10.0,SSW,5.8,-,N/A,,Overcast,200,2013-06-10 08:45:00
4:52 AM,71.6,66.2,83,30.10,10.0,SSW,8.1,-,N/A,,Overcast,200,2013-06-10 08:52:00
4:54 AM,72.0,66.0,81,30.09,10.0,SSW,6.9,-,N/A,,Overcast,200,2013-06-10 08:54:00
5:19 AM,73.0,66.9,81,30.10,10.0,SSW,8.1,-,N/A,,Overcast,200,2013-06-10 09:19:00
5:40 AM,73.0,66.9,81,30.09,10.0,SSW,4.6,-,N/A,,Mostly Cloudy,200,2013-06-10 09:40:00
5:54 AM,73.0,66.9,81,30.09,10.0,SSW,5.8,-,N/A,,Mostly Cloudy,210,2013-06-10 09:54:00
6:54 AM,73.0,66.0,79,30.09,10.0,SSW,8.1,-,N/A,,Mostly Cloudy,210,2013-06-10 10:54:00
7:06 AM,73.0,66.0,79,30.09,10.0,SSW,10.4,-,N/A,,Mostly Cloudy,210,2013-06-10 11:06:00
7:54 AM,73.9,66.0,76,30.09,10.0,SSW,11.5,-,N/A,,Mostly Cloudy,210,2013-06-10 11:54:00
8:07 AM,73.9,66.0,76,30.09,10.0,SSW,9.2,-,N/A,,Mostly Cloudy,210,2013-06-10 12:07:00
8:54 AM,73.9,66.0,76,30.08,10.0,SSW,12.7,-,0.00,Rain,Light Rain,210,2013-06-10 12:54:00
9:54 AM,75.0,66.0,73,30.07,10.0,SSW,15.0,-,0.00,,Overcast,210,2013-06-10 13:54:00
10:54 AM,77.0,66.9,71,30.06,10.0,SSW,16.1,24.2,N/A,,Overcast,210,2013-06-10 14:54:00
11:54 AM,79.0,68.0,69,30.04,10.0,SSW,17.3,25.3,N/A,,Overcast,210,2013-06-10 15:54:00
12:54 PM,80.1,69.1,69,30.03,10.0,SSW,18.4,24.2,N/A,,Overcast,210,2013-06-10 16:54:00
1:28 PM,80.1,69.1,69,30.02,10.0,SSW,19.6,25.3,N/A,,Partly Cloudy,200,2013-06-10 17:28:00
1:54 PM,81.0,69.1,67,30.00,10.0,SSW,18.4,-,N/A,,Overcast,200,2013-06-10 17:54:00
2:23 PM,79.0,69.1,72,30.00,10.0,SSW,19.6,-,N/A,,Mostly Cloudy,200,2013-06-10 18:23:00
2:54 PM,75.0,68.0,79,29.99,10.0,SSW,16.1,-,0.00,Rain,Light Rain,210,2013-06-10 18:54:00
3:12 PM,75.9,68.0,76,29.99,10.0,SSW,19.6,25.3,0.00,,Mostly Cloudy,210,2013-06-10 19:12:00
3:25 PM,75.9,68.0,76,29.99,10.0,SSW,17.3,24.2,0.00,,Mostly Cloudy,210,2013-06-10 19:25:00
3:54 PM,75.0,66.9,76,29.96,10.0,SSW,16.1,-,0.00,,Partly Cloudy,210,2013-06-10 19:54:00
4:12 PM,75.0,66.9,76,29.97,10.0,SSW,17.3,-,0.00,Rain,Light Rain,200,2013-06-10 20:12:00
4:35 PM,73.9,66.9,79,29.96,9.0,SSW,21.9,28.8,0.00,Rain,Light Rain,210,2013-06-10 20:35:00
4:51 PM,73.4,66.2,78,29.95,5.0,SW,18.4,28.8,0.01,Rain,Light Rain,220,2013-06-10 20:51:00
4:54 PM,73.9,66.9,79,29.94,6.0,SW,18.4,-,0.02,Rain,Light Rain,220,2013-06-10 20:54:00
5:54 PM,73.0,66.0,79,29.94,10.0,SSW,12.7,-,0.00,,Scattered Clouds,210,2013-06-10 21:54:00
6:25 PM,73.9,68.0,82,29.93,9.0,SSW,16.1,-,0.01,Rain,Light Rain,200,2013-06-10 22:25:00
6:54 PM,73.0,66.0,79,29.90,10.0,SSW,16.1,-,0.01,,Clear,200,2013-06-10 22:54:00
7:54 PM,73.0,66.0,79,29.90,10.0,SSW,15.0,23.0,N/A,,Clear,210,2013-06-10 23:54:00
8:54 PM,73.0,66.0,79,29.89,10.0,SSW,19.6,27.6,0.00,,Partly Cloudy,210,2013-06-11 00:54:00
9:24 PM,73.0,66.9,81,29.90,9.0,SSW,16.1,32.2,N/A,,Scattered Clouds,210,2013-06-11 01:24:00
9:32 PM,73.0,66.9,81,29.90,9.0,SSW,18.4,25.3,N/A,,Mostly Cloudy,210,2013-06-11 01:32:00
9:39 PM,73.0,66.0,79,29.90,9.0,SSW,18.4,27.6,N/A,,Mostly Cloudy,210,2013-06-11 01:39:00
9:54 PM,73.0,66.0,79,29.90,8.0,SSW,20.7,32.2,N/A,,Overcast,210,2013-06-11 01:54:00
10:15 PM,72.0,66.0,81,29.92,8.0,SW,18.4,-,0.00,Rain,Light Rain,220,2013-06-11 02:15:00
10:54 PM,73.9,66.9,79,29.89,10.0,WSW,12.7,20.7,0.13,Rain,Light Rain,240,2013-06-11 02:54:00
11:54 PM,73.0,66.9,81,29.88,10.0,SSW,13.8,-,0.00,,Clear,210,2013-06-11 03:54:00